Wind_Speed
6 5 5 4 4 4 4 3 3 3 3 3 3 4 5 7 8 8 9 9 9 9 9 7 7 7 7 7 6 5 4 4 2 3 4 2 1 4 6 7 7 6 5 3 2 4 4 4 4 4 3 3 2 3 2 1 2 1 2 3 3 4 4 5 4 4 3 3 3 4 2 2 2 2 2 2 3 3 3 2 1 2 2 3 3
6 5 4 4 3 3 2 2 2 3 3 3 4 4 5 6 7 8 9 9 9 9 8 7 6 5 7 7 7 7 5 5 3 3 4 3 1 3 5 6 6 6 6 4 4 4 4 4 4 3 4 3 2 2 2 1 1 0 1 2 3 4 5 5 5 5 5 4 4 4 3 3 3 2 3 2 2 2 2 2 2 2 3 4 4
5 5 4 3 2 2 2 2 2 3 3 4 4 5 5 6 7 8 8 9 9 9 7 6 5 5 5 5 6 6 6 6 3 3 5 4 2 1 2 4 6 6 6 6 6 5 5 5 4 3 3 3 3 3 2 1 0 1 1 0 1 3 4 5 5 5 5 5 5 5 3 3 3 3 3 3 3 3 2 2 3 4 4 4 5
5 5 4 3 1 1 1 1 2 3 4 5 5 6 5 6 7 8 8 7 8 8 6 5 5 5 5 4 5 5 5 7 4 2 6 7 5 3 2 3 5 5 5 5 5 5 5 5 5 4 3 2 3 3 2 2 2 2 2 1 2 2 2 2 2 2 2 3 4 4 3 4 3 3 4 4 4 4 4 4 5 5 5 5 5
6 5 3 2 1 1 1 2 3 4 5 6 6 6 6 7 7 7 7 6 5 6 5 4 3 3 4 3 4 5 6 7 4 3 7 8 6 5 4 3 5 5 5 6 5 5 6 5 5 4 3 3 3 3 3 3 3 3 3 3 3 2 2 1 1 1 2 2 2 3 3 4 4 5 6 5 5 5 5 6 6 6 6 6 5
6 5 4 3 2 1 1 1 2 4 5 6 6 7 7 7 7 6 6 5 5 5 5 4 2 2 4 3 4 4 6 6 2 5 7 7 6 5 4 3 4 5 5 5 6 6 6 5 5 4 3 3 3 3 4 4 4 5 4 4 4 4 4 4 3 3 4 3 3 4 4 5 5 6 7 6 6 6 5 6 6 6 7 7 6
7 6 5 4 3 2 1 1 2 3 4 5 6 7 7 7 6 6 5 5 5 5 6 5 2 1 2 3 4 5 6 5 2 5 6 6 6 5 6 4 5 6 5 4 5 6 6 5 5 4 3 4 4 4 5 6 6 6 6 6 6 6 6 6 5 5 6 6 6 6 6 6 6 7 7 7 7 7 6 6 6 6 6 7 7
6 6 5 5 4 3 2 1 1 2 2 4 5 6 5 5 5 5 4 5 5 6 6 7 5 2 1 3 4 4 5 4 2 6 6 5 5 5 5 6 6 7 6 5 5 7 7 6 6 5 4 5 6 5 5 6 7 7 7 8 8 8 8 8 7 7 8 8 8 8 8 9 9 9 9 8 7 8 8 7 7 8 8 8 8
7 6 5 5 4 3 2 1 1 1 2 3 4 3 3 3 3 3 3 4 4 5 6 6 7 5 3 3 3 3 3 2 3 7 8 5 4 4 4 5 5 5 5 5 5 6 6 6 7 6 6 7 7 7 6 6 6 6 7 6 7 8 9 9 8 9 9 10 10 10 10 10 11 11 11 11 10 10 10 9 8 10 11 11 10
7 6 5 5 4 3 2 1 1 1 2 3 2 1 1 1 1 2 3 4 4 5 5 6 6 5 4 3 1 1 2 2 5 9 9 5 4 4 4 4 4 5 5 5 6 6 5 6 7 7 7 8 8 8 8 7 7 7 7 6 6 7 8 9 9 9 10 11 11 12 12 13 13 13 13 13 13 12 12 11 11 12 14 15 13
8 7 6 5 4 3 2 1 0 1 2 2 1 1 0 1 1 1 2 4 5 6 7 7 6 5 4 2 1 2 2 3 6 9 9 5 4 3 3 5 6 6 6 6 6 6 6 6 7 7 8 9 8 8 8 8 7 7 7 7 7 7 8 8 9 10 10 11 12 12 12 13 14 15 15 15 15 15 14 13 13 13 14 16 15
9 8 7 6 5 3 2 1 1 1 1 1 0 1 0 1 1 2 3 4 6 8 9 7 6 5 5 4 3 4 3 4 7 9 8 6 4 3 2 4 6 7 8 8 7 7 7 7 8 8 8 9 9 9 8 8 8 8 8 8 8 8 9 9 10 11 11 11 11 11 12 12 13 15 15 15 16 16 15 15 14 14 15 15 16
10 9 8 7 5 4 3 2 1 1 0 1 2 1 0 0 1 2 4 5 7 8 8 7 5 5 5 6 5 5 5 5 6 7 7 6 4 1 2 3 5 6 8 9 9 8 7 7 8 8 8 9 9 9 9 8 8 8 8 9 10 9 10 11 11 11 12 12 12 12 12 13 14 14 15 15 15 15 16 16 16 16 16 17 17
12 10 9 8 6 5 3 2 1 1 1 3 3 2 1 1 1 2 3 5 7 9 8 6 5 5 5 7 7 8 8 6 7 8 7 7 5 1 1 3 4 5 5 7 7 7 8 9 9 8 8 8 8 9 10 9 10 10 9 10 10 10 11 12 12 12 12 12 12 13 13 13 13 14 14 14 15 15 15 15 16 16 17 18 18
13 11 10 9 7 6 4 2 1 1 3 4 5 4 3 2 1 2 3 5 8 9 9 7 6 5 4 6 8 9 9 9 9 9 9 7 4 1 1 3 4 5 5 4 2 3 5 8 9 10 9 9 9 9 10 10 12 12 12 12 12 12 13 13 13 13 13 13 13 14 14 14 14 14 14 14 14 15 15 16 16 16 17 17 18
14 12 11 10 8 7 5 3 2 3 5 6 6 5 4 2 1 1 3 5 7 8 8 8 7 5 4 5 6 7 7 8 10 10 9 7 4 2 1 2 3 4 5 4 1 3 1 3 5 8 10 10 10 10 11 12 13 14 14 15 14 14 14 15 15 15 14 14 14 14 14 14 14 14 14 14 15 15 16 17 17 17 17 18 18
15 13 12 11 9 8 6 4 4 5 6 7 7 5 4 3 2 0 2 5 6 6 7 8 8 7 5 5 5 5 4 5 7 7 7 6 4 3 1 1 2 4 5 4 2 3 2 2 2 3 5 7 8 9 10 11 11 13 14 15 15 15 15 15 15 15 14 14 14 14 14 14 14 14 14 15 15 16 17 18 18 19 19 19 19
16 14 13 11 10 9 7 6 5 6 8 8 7 5 5 4 3 1 2 4 4 5 6 7 8 9 7 6 5 4 4 4 5 5 6 6 4 3 2 1 2 2 2 4 4 3 3 1 1 1 2 3 5 6 8 8 9 11 12 12 13 13 13 13 13 13 13 13 13 13 12 13 13 13 14 14 15 16 17 18 18 19 20 20 20
17 15 14 12 11 10 8 7 7 8 9 9 8 7 6 5 3 2 2 3 3 4 5 6 8 9 9 8 6 4 3 3 5 5 4 4 3 2 2 1 1 2 2 3 4 3 2 2 1 1 1 1 2 3 4 6 7 9 9 10 10 11 12 12 12 12 12 12 12 12 12 12 12 12 13 13 13 14 15 16 17 18 19 20 21
17 16 15 14 13 11 9 8 8 10 11 11 9 8 8 6 4 2 2 2 2 3 4 6 8 8 9 9 8 6 4 3 4 4 3 3 2 1 1 1 1 1 2 3 2 3 3 2 1 1 1 1 1 2 3 4 5 5 6 7 8 9 10 10 11 11 12 12 12 11 11 11 11 11 12 12 12 12 13 14 15 16 16 18 19
17 17 16 15 14 13 11 10 10 12 13 12 11 11 10 8 6 3 2 1 2 3 4 6 7 8 9 10 10 9 7 5 4 4 3 3 2 1 1 1 2 1 2 2 3 5 5 3 2 1 1 1 1 2 2 3 3 4 5 5 6 6 7 7 8 8 9 9 9 9 9 9 10 10 11 11 12 12 13 13 14 15 15 16 16
17 18 18 17 16 14 12 11 11 14 15 14 13 13 11 9 7 4 3 2 3 4 5 6 7 8 9 10 10 10 9 8 6 4 4 3 1 1 1 1 2 2 3 3 4 5 6 5 4 3 2 2 2 2 2 3 3 4 4 5 4 4 4 5 5 6 6 6 7 7 8 8 9 9 10 10 11 11 11 12 13 14 14 15 15
15 17 18 17 17 15 13 12 13 15 16 16 16 15 13 11 8 6 5 5 4 3 4 5 6 7 8 9 10 10 10 9 8 6 5 3 1 1 1 2 2 3 3 4 5 5 5 5 5 4 4 4 4 4 3 4 4 5 5 4 3 3 3 3 4 4 4 4 5 6 7 8 9 9 10 10 10 10 10 11 11 12 13 14 14
10 13 16 17 17 15 14 13 13 15 17 18 18 17 15 12 10 8 7 6 4 3 3 4 4 5 6 7 8 8 9 9 8 7 5 3 2 1 1 3 3 3 4 5 5 6 5 5 6 5 5 5 6 6 5 5 6 7 7 5 4 5 5 6 6 5 5 5 6 7 8 8 9 9 10 10 10 11 11 12 12 12 13 14 15
8 10 13 16 16 16 16 15 14 16 19 21 20 19 16 14 12 10 9 7 5 3 2 3 3 4 4 5 5 6 8 8 8 7 6 4 3 2 1 2 2 3 5 6 6 6 6 6 6 7 7 7 8 8 7 7 8 9 10 8 7 7 8 8 8 7 6 7 8 8 8 8 8 9 10 11 11 12 13 14 15 16 16 17 17
10 10 12 16 17 17 17 17 17 18 21 23 22 20 18 16 14 13 11 8 5 4 2 2 2 2 2 2 3 4 6 7 7 7 7 6 4 3 3 3 3 3 5 6 7 6 6 6 7 7 8 8 10 9 8 8 9 10 11 11 10 10 10 9 9 8 9 9 10 10 10 10 11 12 13 14 15 16 17 18 19 20 20 21 21
12 11 13 17 19 20 20 20 19 20 22 24 24 22 20 18 16 15 13 10 7 5 4 3 2 1 1 0 0 2 4 5 5 6 6 6 5 4 4 4 5 5 5 7 8 7 7 8 9 9 9 9 10 10 10 10 10 11 12 11 10 10 11 11 10 10 10 11 12 12 13 13 14 15 17 18 20 21 22 23 24 24 25 25 25
15 14 15 17 20 22 22 22 21 22 24 26 26 24 22 20 19 17 15 12 10 7 5 5 5 4 3 2 2 1 1 2 2 4 4 5 5 5 5 5 5 6 6 7 8 8 8 9 10 10 10 11 11 11 11 11 11 12 12 11 11 12 12 12 12 12 12 13 14 14 15 16 18 19 21 22 23 24 24 24 25 25 25 26 26
18 17 16 17 20 22 24 24 24 24 25 27 27 26 24 22 21 20 17 15 13 10 8 7 7 6 4 4 5 4 3 2 2 2 3 4 5 5 5 5 5 6 6 7 9 10 10 10 10 11 12 12 12 12 13 12 12 13 13 13 13 14 14 14 14 14 14 15 16 17 18 20 22 23 24 25 25 25 25 24 24 24 24 24 24
20 19 18 18 19 22 24 26 26 26 27 28 29 28 26 25 23 22 20 18 16 13 10 9 9 8 6 6 7 7 7 6 5 5 5 5 6 6 6 6 6 6 7 7 9 11 12 12 12 13 13 14 14 14 14 14 14 14 15 15 15 15 15 16 16 16 16 17 18 20 22 24 25 26 26 26 26 25 25 25 26 25 24 24 23
22 21 19 19 19 21 23 26 27 27 28 29 30 30 29 27 25 24 23 21 18 15 13 12 11 10 8 8 9 10 10 10 8 8 8 8 8 8 8 7 7 7 8 8 9 10 12 13 14 14 15 15 15 15 16 16 16 16 17 17 17 16 17 17 17 17 18 19 21 23 25 26 27 27 27 27 26 26 26 27 27 26 26 25 24
24 23 21 20 20 21 22 25 26 28 29 30 31 32 31 29 27 26 25 23 21 18 16 15 14 12 10 10 11 12 13 12 11 11 11 11 11 10 10 9 9 8 8 9 10 11 13 14 15 16 16 16 16 16 17 18 18 18 19 19 18 17 18 18 19 19 20 22 23 25 27 28 29 29 29 29 28 28 28 29 28 28 28 27 26
26 25 23 22 22 21 22 24 26 27 29 31 32 33 33 31 29 27 27 26 23 21 19 18 17 15 13 12 13 15 15 14 13 13 13 13 13 12 12 12 11 9 9 10 11 12 13 15 16 17 17 18 18 18 18 18 19 19 20 20 20 20 20 20 22 22 22 24 26 27 29 30 31 31 31 31 30 30 31 31 31 31 31 31 30
27 26 25 24 24 23 23 24 25 27 28 31 33 35 34 33 30 29 28 27 25 24 22 21 19 17 15 15 16 17 17 16 15 15 15 15 15 14 14 14 13 11 11 11 12 13 15 16 17 18 18 19 19 19 18 18 19 20 21 21 22 21 21 22 23 24 24 26 28 29 31 32 32 33 34 33 33 33 33 34 34 34 34 34 34
29 29 27 26 26 25 25 25 25 26 28 31 34 36 35 34 32 31 30 29 27 26 24 23 21 20 18 17 18 19 20 18 18 17 17 17 16 16 16 16 15 13 13 13 13 14 15 16 17 19 19 20 19 19 19 19 19 20 21 22 22 22 23 23 23 24 26 27 29 30 31 33 34 34 34 34 34 35 35 36 36 37 37 37 36
32 31 30 29 28 27 27 27 27 27 28 30 34 36 36 35 34 33 32 31 30 28 27 25 24 22 21 20 20 20 21 21 20 19 19 18 18 18 17 17 17 15 14 14 14 15 16 17 17 19 20 20 19 18 18 19 20 21 22 22 22 23 24 25 24 24 26 27 29 30 32 34 34 34 34 35 35 36 37 38 39 39 39 39 38
34 33 32 31 30 29 29 29 28 28 28 30 33 36 37 37 36 34 33 32 31 30 29 28 26 24 23 22 22 22 22 22 22 21 20 20 20 19 19 19 18 18 17 16 15 16 17 17 18 19 20 20 19 18 18 19 19 20 21 22 23 24 25 25 25 24 25 27 29 31 32 33 33 33 34 35 36 37 38 39 40 40 41 40 39
35 34 33 32 31 31 30 30 30 29 29 30 32 36 37 38 37 36 35 34 33 32 32 30 28 26 25 24 24 24 24 24 24 23 22 22 21 21 21 21 20 20 19 18 17 17 17 18 19 20 20 20 20 20 19 19 19 19 20 22 23 24 24 25 25 26 28 29 30 31 32 32 33 34 35 36 37 38 39 39 40 40 40 40 39
35 35 33 32 32 32 31 31 31 31 30 31 32 36 38 38 39 38 37 35 34 34 33 32 30 28 27 26 26 26 25 25 25 25 24 24 23 22 22 23 23 22 21 21 19 18 18 19 19 20 21 21 22 22 21 20 19 19 20 21 23 24 25 26 26 27 28 30 31 32 32 32 33 36 36 37 38 39 39 39 39 40 39 38 38
34 34 33 31 32 33 33 33 32 32 32 32 33 35 38 39 40 40 38 37 36 35 34 33 31 30 29 28 28 27 26 26 27 27 27 26 25 24 23 24 25 24 24 23 22 21 20 20 20 20 20 21 23 24 22 21 20 21 21 22 23 25 27 27 27 27 27 29 30 31 31 31 33 35 36 37 38 39 37 36 37 38 37 36 35
29 30 30 30 30 33 34 34 34 34 35 34 34 35 38 39 40 40 39 38 38 37 36 34 33 32 31 30 29 28 27 27 28 28 29 28 27 26 25 25 26 26 26 25 24 24 23 23 22 20 20 21 22 24 24 23 22 23 23 23 24 25 26 27 28 28 27 27 29 29 30 31 33 34 35 35 36 36 35 33 33 35 35 34 33
27 28 28 28 29 31 34 35 35 36 37 36 34 34 37 39 40 40 40 39 39 38 37 36 34 33 33 32 30 30 29 28 29 30 31 30 29 28 27 26 26 27 27 26 26 26 25 25 24 22 21 21 22 23 24 24 24 25 25 25 25 25 25 25 27 28 27 27 29 30 31 32 33 33 33 32 32 33 32 31 31 32 33 33 33
28 28 28 28 29 30 33 35 37 37 38 37 35 34 36 39 40 41 40 40 39 39 39 38 36 34 34 33 32 31 31 30 30 32 32 32 30 30 29 28 27 27 28 27 27 27 27 27 26 25 23 22 22 23 24 24 25 26 27 27 26 26 26 25 25 27 28 28 30 31 31 32 32 31 30 29 28 29 29 30 30 30 31 31 31
29 29 29 29 30 31 33 35 36 38 39 38 36 35 36 38 40 41 41 41 40 40 40 39 37 36 36 35 34 34 33 31 31 33 33 33 32 31 30 29 28 28 28 28 27 27 28 28 28 28 25 22 22 24 24 24 26 27 28 28 27 26 26 25 25 27 28 30 31 32 32 31 31 29 28 27 26 26 27 27 27 28 29 29 29
32 31 32 31 31 32 33 35 36 37 38 39 38 37 36 38 40 41 42 42 41 41 41 40 39 38 37 37 36 36 35 33 33 34 34 33 33 33 32 31 30 29 29 28 28 28 28 29 30 29 26 24 24 25 25 25 27 29 30 29 28 26 25 25 26 27 29 31 32 32 31 30 29 27 26 26 25 24 25 26 26 26 27 27 27
35 34 34 34 33 33 34 35 35 36 37 39 39 38 37 37 39 42 43 43 43 42 42 41 40 39 39 39 38 38 37 35 35 35 34 34 34 34 34 33 31 30 29 28 28 28 29 30 30 30 29 27 27 27 27 26 27 29 30 30 28 26 24 25 26 27 30 31 30 29 29 27 26 24 24 25 25 24 24 25 25 25 25 25 26
37 36 36 35 35 35 36 37 36 36 36 38 39 40 38 37 39 43 45 45 45 44 43 43 42 41 41 41 40 40 39 38 37 37 35 35 35 35 35 34 32 31 29 28 27 28 29 30 31 30 29 28 28 28 28 27 27 28 29 29 27 24 24 25 26 28 30 31 29 26 26 25 24 22 21 23 24 23 23 24 23 23 23 24 25
38 38 38 37 37 37 37 38 39 38 37 38 39 40 39 38 40 43 46 47 47 46 46 45 44 44 43 43 42 42 41 40 39 38 37 37 36 35 35 34 33 31 30 28 27 28 30 30 31 30 29 28 28 29 29 29 28 28 29 27 24 23 24 25 26 28 30 31 29 26 25 24 23 21 20 21 23 23 23 23 24 23 23 24 25
38 38 39 40 40 39 38 38 39 40 39 39 39 40 40 40 41 44 48 49 49 48 48 47 46 46 45 45 44 43 42 42 41 39 38 38 37 37 36 35 32 31 30 28 27 28 29 30 30 30 29 28 29 30 30 29 28 28 28 26 24 24 25 25 26 27 28 28 28 26 25 25 23 22 20 20 21 23 23 23 24 25 25 25 25
37 38 39 41 41 40 39 38 39 40 41 41 40 40 41 42 42 44 47 50 50 50 50 50 48 47 47 46 45 44 44 44 43 41 39 38 38 39 37 35 32 31 30 29 27 26 28 30 29 29 29 29 29 30 30 29 28 28 27 25 24 25 25 26 27 27 26 27 26 23 23 24 23 23 22 20 19 20 23 24 25 25 26 27 27
37 38 40 42 42 42 41 39 38 39 41 42 42 42 42 43 44 45 47 50 52 52 52 52 51 49 49 48 46 45 46 46 45 43 41 39 40 40 39 35 32 30 30 30 27 25 27 29 29 28 28 29 30 30 30 29 28 28 26 24 24 25 25 26 27 26 24 26 26 23 22 23 22 22 23 22 20 19 20 23 25 25 26 27 27
Wind_Direction
145 139 132 122 113 109 101 92 89 81 63 46 23 15 7 3 2 358 1 2 1 5 6 24 34 12 4 2 355 350 354 351 5 101 116 113 182 228 220 208 193 201 230 225 175 161 156 164 162 172 175 153 141 141 124 71 71 80 126 146 158 166 180 192 190 185 194 213 252 256 255 280 291 304 310 317 320 321 319 322 315 315 324 324 326
151 149 145 135 125 115 102 92 80 63 44 29 18 12 6 1 358 354 358 358 359 5 6 16 28 13 1 354 341 341 343 331 335 122 132 123 157 223 216 211 198 198 219 210 185 173 162 168 169 185 187 174 176 158 153 120 91 79 124 141 159 170 185 199 201 194 190 204 240 244 239 260 274 291 298 290 292 294 300 320 310 300 308 313 318
165 159 155 147 138 124 109 95 60 42 21 12 8 8 6 1 358 354 357 1 359 2 4 7 20 16 356 345 334 330 327 320 325 134 144 131 130 201 207 219 215 206 217 206 184 182 181 179 180 195 198 190 203 189 178 191 229 315 354 67 194 185 188 199 204 204 197 200 221 231 228 246 259 281 289 275 263 262 274 302 298 295 302 304 310
176 167 161 159 161 138 98 58 34 29 17 10 7 6 8 4 1 357 0 7 1 357 360 1 14 7 343 336 326 315 304 297 297 142 141 133 142 183 195 219 238 243 238 225 193 192 200 188 184 199 204 212 225 220 214 212 221 262 306 317 284 252 215 208 210 219 227 225 237 244 238 246 251 256 270 273 266 265 270 273 276 288 297 299 304
183 179 173 178 205 262 28 36 25 22 16 13 12 8 6 5 8 5 5 12 1 351 350 351 1 347 333 332 309 295 283 273 269 120 128 133 144 181 203 216 250 260 246 234 212 205 215 206 201 203 200 216 233 241 246 241 237 247 260 273 287 298 298 277 263 269 280 283 280 274 259 253 247 241 252 260 257 258 263 269 278 287 292 296 301
189 189 183 188 207 245 324 33 26 20 15 12 11 7 4 5 9 7 7 12 358 345 344 347 348 325 326 319 282 272 268 259 226 113 126 141 148 172 206 230 249 249 249 247 230 217 215 216 220 211 202 213 220 231 239 240 243 248 254 261 267 273 275 271 267 276 283 288 288 284 278 271 262 252 255 257 256 262 269 281 291 293 294 299 301
193 190 186 187 198 219 229 75 43 23 11 7 5 0 359 3 5 4 5 5 357 349 351 351 349 327 317 299 260 249 251 242 157 113 120 138 154 174 198 215 211 211 228 244 244 237 222 224 235 217 202 222 231 237 244 246 246 248 254 260 263 263 266 265 261 269 277 279 279 277 275 273 272 267 265 267 272 278 280 284 290 290 293 296 297
194 191 189 190 198 213 204 137 87 38 13 2 0 355 354 0 2 0 359 2 5 3 1 358 3 42 335 284 251 233 235 229 149 124 124 134 156 182 203 218 206 198 210 216 229 244 233 228 238 229 216 227 238 244 249 252 250 252 255 258 262 262 264 264 260 264 272 277 277 277 274 272 273 271 270 273 280 282 277 279 289 295 297 293 292
198 196 195 197 205 217 203 144 110 58 18 357 1 359 352 354 354 352 1 15 22 14 11 12 14 34 22 309 247 211 214 206 149 135 131 139 164 184 207 224 214 197 206 215 222 237 237 234 238 242 237 232 236 244 250 252 252 256 257 259 264 263 262 262 261 264 270 275 277 276 274 271 270 271 272 274 275 275 272 268 269 274 280 284 287
202 203 202 204 210 216 202 157 117 28 1 352 4 26 347 348 355 357 12 25 32 27 25 27 27 43 32 340 256 167 186 166 149 141 134 146 176 191 216 228 221 204 202 217 227 228 227 240 249 254 254 249 245 250 258 261 262 263 258 261 269 266 263 263 267 269 271 276 278 276 275 274 272 272 272 272 271 272 272 269 262 257 260 266 274
206 206 205 206 210 211 199 196 260 346 353 354 1 129 39 2 33 36 35 28 34 37 33 34 37 47 42 4 51 97 138 152 150 143 133 146 172 178 229 246 239 227 216 213 224 228 215 220 239 243 247 253 252 255 263 266 268 268 264 270 276 270 266 268 272 274 274 276 278 278 277 276 275 275 274 272 273 272 271 271 269 264 260 261 269
209 209 207 204 205 207 204 229 285 338 353 356 178 147 71 349 40 51 49 39 36 34 29 27 31 42 51 48 63 79 106 137 144 139 127 131 154 170 222 259 251 243 238 222 216 227 222 215 226 233 236 247 255 259 261 264 268 268 269 273 272 269 270 272 273 276 277 275 277 281 281 280 279 279 279 278 278 277 273 271 271 270 267 266 268
212 211 210 205 205 209 215 243 294 333 328 182 176 156 156 266 73 55 45 39 33 28 20 14 25 40 50 57 66 76 89 106 119 125 125 125 130 179 231 267 264 251 248 237 224 227 232 223 225 234 239 247 259 263 263 267 269 265 263 265 265 265 269 272 274 277 279 277 278 281 284 284 283 282 282 281 281 281 278 274 272 271 270 269 270
213 212 211 208 208 213 221 240 286 298 210 191 181 161 173 183 100 63 44 34 25 21 13 11 31 44 53 68 79 84 90 94 102 113 119 119 116 128 259 275 281 274 269 255 230 224 237 233 228 232 238 245 256 264 266 266 266 266 264 264 264 264 266 269 272 275 277 276 277 279 282 285 284 284 283 282 281 281 281 278 276 276 275 274 274
212 211 210 210 212 216 219 222 248 243 204 195 185 169 171 169 111 58 37 22 20 19 14 22 40 46 58 73 83 90 92 95 104 110 111 114 122 138 248 275 287 299 310 300 221 199 242 245 239 241 242 245 252 263 268 263 262 267 270 270 270 269 269 270 271 273 275 276 277 279 281 282 280 279 279 280 281 282 283 282 282 282 281 280 279
212 211 210 211 213 214 214 211 217 216 204 196 182 171 172 172 148 59 25 10 17 20 17 31 43 44 50 55 71 86 90 100 103 103 110 118 126 116 91 285 308 332 337 345 101 118 329 279 258 251 250 250 251 255 263 263 264 266 268 270 272 272 272 271 271 271 271 272 272 273 274 274 275 275 275 277 279 280 281 282 283 283 283 283 282
213 211 210 211 212 211 209 209 208 203 203 197 184 179 184 182 181 71 3 2 15 20 22 36 42 42 48 51 59 71 82 107 104 100 111 121 127 108 78 302 351 7 359 10 63 112 90 3 306 263 255 255 253 253 256 261 264 264 267 270 272 273 273 273 273 272 271 269 268 267 267 268 269 271 272 273 275 276 277 279 280 281 281 281 281
214 212 211 211 211 208 204 206 202 197 202 199 190 192 194 191 202 248 332 354 12 20 28 40 44 44 48 50 55 68 84 99 103 106 108 114 132 135 119 345 10 15 2 13 28 76 104 79 338 293 260 251 253 257 258 263 265 263 265 268 271 275 275 275 276 275 275 273 271 270 270 272 273 274 275 275 275 276 277 278 280 281 282 283 282
214 213 213 213 210 207 205 206 200 197 203 199 193 198 196 196 212 247 316 345 13 29 41 50 51 52 51 52 57 69 83 92 108 113 105 106 129 152 149 134 353 352 350 5 13 25 62 92 54 345 296 276 270 272 275 277 273 265 262 262 266 271 273 274 276 276 277 278 280 282 285 287 289 289 289 288 287 285 284 284 284 285 286 286 287
214 212 212 213 210 208 208 206 202 202 204 200 197 201 198 201 215 239 299 328 36 57 63 65 62 59 57 56 59 63 68 88 111 117 126 138 129 106 154 220 291 312 349 350 343 342 3 52 54 11 26 31 358 303 299 298 292 284 274 266 262 263 268 272 275 279 282 285 288 291 294 296 296 298 299 300 300 299 298 296 295 293 292 291 290
215 213 212 212 210 209 211 209 206 205 204 203 201 199 200 206 213 230 273 279 119 100 85 78 73 68 61 58 58 60 65 74 93 114 129 140 139 153 207 251 297 298 314 312 291 310 334 358 11 1 4 22 11 334 320 304 299 300 293 280 266 259 261 265 269 275 279 283 287 289 292 295 297 300 302 304 306 307 307 306 305 303 300 297 295
218 215 212 212 210 210 213 213 213 210 206 206 202 198 204 208 210 225 238 202 154 120 99 85 78 74 66 59 57 56 59 66 77 95 95 96 133 201 235 254 299 300 298 299 289 298 317 329 336 343 333 329 331 320 314 301 287 278 274 271 264 256 256 257 260 264 269 277 286 295 303 308 312 314 315 315 315 314 314 314 312 311 309 306 304
225 220 215 213 211 211 214 216 218 215 208 206 203 200 205 207 208 220 212 188 166 133 109 92 82 78 69 59 56 56 57 61 68 79 84 83 97 129 229 260 293 297 291 297 293 286 287 296 306 307 300 301 301 296 296 293 284 274 268 269 277 288 293 291 288 286 293 305 316 325 329 330 331 330 329 327 326 325 324 324 323 322 321 320 318
231 225 219 216 213 213 218 221 221 217 211 209 207 203 205 205 206 211 203 191 178 155 124 101 93 85 70 58 54 57 59 59 61 67 75 74 61 81 189 254 291 304 291 285 283 283 277 275 279 280 282 288 290 291 293 292 290 293 297 304 319 335 343 343 338 334 338 343 343 341 336 333 330 326 324 322 321 321 320 320 320 320 320 321 322
234 227 221 219 216 215 220 224 223 218 213 212 211 208 206 205 205 205 201 197 191 177 148 114 101 87 72 58 53 58 62 62 61 60 61 61 48 38 346 284 284 294 292 284 279 285 290 286 282 281 284 285 284 287 293 294 295 298 304 312 323 336 344 344 341 336 329 326 325 323 319 315 310 307 305 305 305 306 306 307 307 308 309 311 312
235 227 221 220 218 217 221 224 224 219 214 214 214 211 210 209 207 205 204 204 200 193 181 152 122 96 79 64 59 65 65 61 59 58 55 48 36 16 347 315 301 295 294 294 293 296 296 291 289 285 282 280 280 285 288 289 291 293 300 310 319 324 327 327 324 317 307 303 303 302 300 298 297 298 299 300 302 303 303 303 303 304 304 304 305
238 231 225 223 220 219 221 224 225 221 216 214 214 214 213 213 211 208 208 208 205 203 204 201 196 193 196 58 127 99 78 64 55 54 51 45 33 18 355 329 316 308 301 302 306 307 299 293 294 292 287 282 280 283 283 283 287 292 299 308 311 309 308 307 305 301 295 292 292 292 293 295 298 301 303 305 306 305 305 305 304 304 304 304 304
242 237 231 227 225 223 223 225 226 223 218 215 215 215 215 217 217 214 213 213 211 213 217 215 218 225 233 256 257 233 105 67 46 39 36 34 25 14 6 348 330 316 306 302 301 300 297 295 294 292 290 289 285 283 283 286 290 294 300 303 299 295 294 295 297 298 296 293 294 295 297 300 302 305 307 308 308 307 307 306 305 304 304 303 304
243 241 237 233 229 227 225 226 226 225 221 217 216 216 216 219 222 221 219 218 217 220 227 227 227 232 244 269 278 276 273 282 309 337 356 2 359 357 358 353 345 330 314 304 297 296 297 295 294 292 293 293 291 287 286 289 291 292 294 294 293 291 290 294 299 301 301 299 300 300 302 304 306 308 310 310 311 312 312 312 311 309 307 305 304
243 244 243 240 236 232 229 228 228 225 222 219 218 217 216 219 224 226 225 224 223 225 232 237 236 237 250 271 281 284 282 282 288 302 318 328 330 334 338 341 342 338 327 314 303 299 300 298 295 296 298 299 299 295 292 293 292 292 292 291 290 291 292 297 303 305 305 304 303 303 304 305 307 309 311 313 314 315 316 317 315 313 311 310 308
243 245 245 244 243 239 235 233 232 229 224 221 220 219 218 220 224 228 230 229 228 227 232 239 241 241 248 265 277 282 284 284 288 296 307 313 315 317 319 323 326 329 331 323 312 304 304 305 303 301 301 300 299 298 295 294 293 293 293 291 290 292 295 302 306 307 306 305 304 304 305 307 309 311 313 315 315 316 317 317 316 315 314 313 312
243 244 245 244 244 244 241 238 236 234 229 224 222 221 220 221 223 228 232 233 232 230 231 237 241 241 245 257 268 274 278 282 287 294 301 305 307 308 308 309 311 316 324 323 318 310 306 307 308 306 305 303 299 297 295 294 293 293 292 292 293 296 302 307 309 308 306 304 305 306 308 310 312 314 316 317 316 315 316 317 317 316 316 316 316
243 243 245 245 245 245 244 242 239 237 233 228 224 223 222 222 223 227 232 235 234 232 232 235 239 240 242 252 261 266 271 275 281 289 296 299 302 303 303 303 301 303 310 315 315 311 307 307 309 308 307 305 301 298 295 294 294 294 294 294 297 302 306 310 310 308 306 305 306 308 310 312 314 316 317 318 317 315 316 317 318 318 319 319 318
244 244 246 247 247 245 245 245 242 239 236 230 226 224 223 223 224 226 231 235 236 235 235 236 239 239 241 249 257 263 268 272 276 283 290 295 298 298 298 298 297 296 297 304 309 310 308 307 307 306 307 306 303 298 294 292 291 293 294 296 300 304 307 310 310 307 306 307 308 309 311 314 316 318 319 318 317 316 317 318 318 319 319 318 317
245 246 248 249 249 247 245 246 244 241 238 232 227 225 224 224 225 227 231 234 236 237 238 239 240 239 240 246 254 261 266 270 274 279 285 290 293 293 293 294 294 293 292 295 301 307 309 307 303 302 305 307 302 295 290 289 289 290 292 296 300 304 306 309 309 306 305 308 308 310 313 316 318 319 318 317 316 316 316 317 317 318 317 315 314
247 248 248 249 250 249 246 246 245 243 240 234 228 226 225 225 226 228 230 233 236 238 239 240 240 240 241 246 253 259 264 268 272 276 282 286 288 289 289 291 290 289 288 289 292 297 304 306 302 299 302 305 302 292 286 286 287 289 291 295 300 302 303 305 305 303 304 307 309 311 314 316 318 318 317 316 315 314 314 314 314 313 312 310 309
248 249 249 248 249 249 248 247 247 245 243 238 231 227 226 226 227 229 231 233 236 237 239 241 241 241 243 247 253 258 261 266 270 275 279 283 285 286 287 287 286 283 283 284 284 288 294 298 299 298 299 303 303 296 290 288 288 291 295 298 301 301 301 303 303 301 301 304 307 310 312 314 316 316 315 314 312 311 310 309 309 308 307 306 306
249 250 249 248 248 249 249 249 248 247 245 241 234 229 227 227 227 229 231 233 235 237 239 242 242 242 244 248 253 257 260 263 268 273 277 279 282 284 285 284 283 282 282 281 280 283 287 290 293 296 297 299 301 300 297 294 292 293 295 299 301 300 299 301 302 301 302 305 307 307 309 313 315 313 312 311 310 308 307 306 306 305 304 304 304
248 250 250 248 247 248 249 248 248 247 245 243 237 231 228 228 228 229 231 233 234 236 239 242 243 243 246 250 254 258 259 261 266 271 274 276 280 283 284 283 283 283 282 281 280 280 282 285 288 292 294 295 296 299 299 296 294 294 295 298 299 297 297 299 299 300 303 305 306 306 309 314 314 311 310 310 308 307 307 306 305 303 302 303 303
246 249 251 250 248 247 248 247 248 248 246 244 240 233 229 229 229 230 232 234 235 236 239 242 243 244 247 251 256 258 259 260 264 269 273 275 278 281 283 283 284 283 282 282 281 278 279 283 284 287 291 292 294 296 296 296 296 297 299 300 300 299 300 302 302 302 303 304 304 306 309 313 312 309 309 308 307 306 305 304 303 301 302 303 303
245 248 250 250 247 245 245 245 246 246 246 245 242 236 231 229 231 232 233 234 236 237 239 242 243 244 247 252 256 258 259 259 262 267 271 274 277 281 284 284 284 284 283 283 282 280 279 282 283 284 287 291 294 295 294 294 296 299 302 303 302 300 300 302 302 302 303 304 304 306 310 311 309 307 308 307 305 305 304 303 302 303 304 304 303
247 248 250 249 247 244 244 244 244 244 245 246 245 240 234 231 232 234 235 235 237 238 239 241 243 244 248 252 256 258 258 259 261 265 270 275 278 281 285 285 284 284 284 283 282 281 280 281 282 282 283 288 292 293 293 294 294 298 301 301 300 300 301 302 301 301 304 307 307 309 312 311 308 308 309 307 306 305 305 305 306 306 306 306 306
248 249 250 249 248 246 245 245 244 244 245 246 246 243 237 233 232 235 236 237 238 239 240 242 242 244 247 252 255 256 256 257 260 265 270 275 278 280 284 285 283 282 283 282 281 280 279 279 280 281 283 286 288 289 292 292 291 294 298 298 297 299 302 304 304 305 308 310 309 311 313 312 311 312 311 308 307 306 306 307 307 306 306 306 307
248 249 250 250 249 248 248 248 247 245 245 246 246 244 240 235 234 235 237 238 239 241 241 242 242 243 246 251 253 254 255 256 260 265 270 276 279 280 282 283 282 281 282 282 282 280 278 277 277 278 281 284 284 286 289 289 288 291 296 297 296 297 301 304 306 308 310 310 310 312 314 315 315 314 311 309 308 308 307 306 306 305 305 306 306
247 249 250 250 249 249 249 250 250 248 247 246 246 245 242 238 235 235 238 240 241 242 243 243 242 243 246 249 252 254 254 255 258 263 269 275 279 279 280 282 282 281 281 282 283 281 279 277 275 276 279 281 282 285 287 287 288 290 293 295 295 297 300 303 306 309 309 309 310 313 316 317 315 314 313 311 311 311 308 307 307 306 306 307 307
248 249 249 249 249 249 250 252 252 251 250 248 247 245 243 240 236 236 239 241 241 242 243 244 243 244 246 249 252 253 254 254 257 262 268 273 275 277 278 280 282 282 280 280 282 282 281 279 276 275 277 280 282 285 287 287 288 289 291 293 294 296 299 302 306 308 308 307 310 314 317 316 314 312 312 312 312 312 310 307 307 307 307 308 308
249 250 250 251 251 250 250 251 253 253 252 250 248 247 244 241 237 237 239 241 243 243 243 243 244 244 246 249 251 251 252 254 256 260 266 270 272 273 274 277 280 282 279 278 280 281 281 280 277 274 274 278 283 286 287 287 287 288 290 292 294 296 299 303 307 308 307 308 312 317 318 315 312 312 314 313 313 313 310 309 311 312 312 313 312
249 251 252 252 252 251 251 251 252 254 254 251 250 249 246 242 238 237 239 242 244 244 244 244 244 245 247 249 250 250 251 254 257 260 264 268 270 270 270 273 278 280 277 275 276 277 278 278 276 273 273 277 282 285 285 284 285 287 290 293 295 297 299 303 306 307 308 311 315 320 319 314 311 313 316 316 314 314 315 316 318 319 320 320 318
250 253 254 254 254 255 255 254 253 254 255 253 251 250 247 243 239 237 239 242 244 246 245 245 245 246 248 250 250 250 251 254 257 259 263 266 268 268 267 270 275 277 274 271 272 274 276 277 275 273 273 275 279 282 282 281 281 284 288 292 295 296 298 302 305 306 308 311 315 320 318 313 312 315 317 318 316 316 319 322 323 324 325 325 323
248 250 252 253 255 256 258 257 255 253 254 255 254 251 248 245 241 239 240 242 245 247 247 247 247 248 249 250 250 250 252 255 257 259 261 264 266 267 267 269 273 275 270 268 271 274 274 275 274 271 271 272 276 279 281 279 279 283 287 291 294 296 300 304 305 307 310 310 313 318 314 309 311 316 317 318 319 320 322 324 325 325 326 327 327
247 246 247 250 253 255 257 258 256 253 252 253 253 252 249 246 243 241 240 242 245 247 248 248 248 248 249 249 249 249 251 255 257 258 260 262 264 267 267 268 272 272 268 267 272 274 272 272 271 269 268 269 273 277 279 278 279 282 285 289 292 295 300 303 303 307 310 309 313 317 311 307 312 317 317 318 322 324 324 324 325 325 326 327 328
Height
3232 3232 3232 3232 3232 3232 3232 3233 3233 3233 3233 3233 3233 3233 3232 3232 3231 3231 3230 3230 3229 3229 3229 3229 3228 3228 3228 3228 3228 3228 3227 3227 3225 3225 3224 3224 3224 3223 3223 3224 3224 3224 3224 3225 3225 3225 3226 3226 3226 3226 3226 3227 3227 3227 3227 3228 3228 3228 3228 3228 3229 3229 3229 3229 3229 3230 3230 3230 3231 3231 3231 3231 3231 3231 3231 3231 3231 3231 3231 3231 3231 3231 3231 3231 3231
3232 3232 3232 3233 3232 3232 3233 3233 3233 3233 3233 3233 3233 3233 3232 3232 3231 3231 3230 3230 3229 3229 3230 3229 3228 3228 3228 3227 3227 3227 3226 3226 3225 3225 3224 3224 3224 3223 3223 3224 3225 3225 3224 3225 3225 3225 3226 3226 3225 3226 3227 3227 3227 3227 3227 3227 3228 3228 3228 3228 3228 3229 3229 3229 3229 3229 3230 3230 3231 3231 3230 3230 3230 3230 3231 3230 3230 3230 3230 3231 3231 3231 3231 3231 3231
3232 3232 3232 3233 3233 3233 3233 3233 3233 3233 3233 3233 3233 3233 3232 3232 3232 3231 3231 3230 3230 3230 3230 3229 3228 3228 3228 3227 3227 3226 3226 3225 3225 3224 3224 3223 3224 3223 3224 3224 3225 3225 3225 3225 3225 3225 3226 3226 3226 3227 3227 3227 3227 3227 3227 3228 3228 3228 3228 3228 3229 3229 3229 3229 3229 3229 3229 3230 3230 3230 3230 3230 3230 3230 3230 3230 3230 3230 3230 3231 3232 3232 3231 3231 3231
3232 3232 3232 3232 3232 3232 3233 3233 3232 3233 3233 3232 3232 3232 3232 3232 3231 3231 3231 3230 3230 3229 3229 3229 3228 3228 3227 3227 3226 3226 3225 3225 3224 3224 3223 3224 3224 3224 3224 3224 3223 3224 3225 3226 3226 3226 3226 3226 3226 3227 3227 3227 3228 3228 3228 3228 3228 3228 3228 3229 3229 3229 3229 3229 3229 3229 3229 3229 3230 3230 3230 3230 3230 3230 3230 3230 3230 3230 3230 3231 3232 3232 3232 3232 3231
3231 3232 3232 3232 3232 3232 3232 3232 3232 3232 3232 3232 3232 3232 3232 3231 3231 3231 3231 3230 3230 3229 3229 3228 3228 3227 3227 3227 3226 3225 3225 3224 3224 3223 3223 3224 3224 3224 3224 3223 3223 3224 3225 3225 3226 3227 3227 3227 3227 3227 3226 3227 3228 3228 3228 3229 3228 3228 3228 3229 3229 3229 3229 3229 3229 3229 3229 3229 3230 3230 3230 3230 3230 3229 3229 3229 3229 3230 3230 3231 3232 3232 3232 3231 3231
3231 3232 3232 3232 3232 3232 3232 3232 3232 3232 3232 3232 3232 3231 3231 3231 3230 3230 3230 3230 3229 3229 3228 3228 3227 3227 3226 3226 3225 3225 3225 3224 3223 3223 3223 3224 3224 3224 3224 3224 3224 3225 3225 3225 3226 3226 3226 3226 3226 3227 3226 3227 3228 3228 3228 3228 3228 3228 3228 3228 3229 3229 3229 3229 3229 3229 3229 3229 3229 3230 3229 3229 3229 3229 3229 3229 3229 3230 3230 3231 3231 3231 3231 3231 3231
3231 3231 3232 3232 3232 3232 3233 3233 3233 3232 3232 3232 3232 3231 3231 3231 3230 3230 3230 3229 3229 3228 3228 3228 3227 3226 3226 3225 3225 3225 3224 3223 3222 3222 3223 3224 3224 3225 3224 3224 3225 3225 3225 3226 3226 3226 3226 3226 3226 3226 3227 3227 3227 3228 3228 3228 3228 3228 3228 3228 3228 3228 3229 3229 3229 3229 3229 3229 3229 3229 3229 3228 3228 3228 3228 3229 3229 3230 3230 3230 3230 3230 3230 3230 3230
3230 3231 3231 3232 3232 3232 3233 3233 3233 3233 3233 3232 3232 3232 3231 3231 3231 3230 3230 3229 3229 3228 3227 3227 3227 3226 3225 3224 3224 3224 3223 3222 3222 3222 3223 3224 3224 3224 3224 3224 3224 3225 3225 3225 3225 3225 3225 3225 3225 3226 3226 3227 3227 3227 3227 3227 3227 3227 3227 3228 3228 3228 3228 3228 3228 3228 3228 3228 3228 3228 3228 3228 3228 3228 3228 3229 3229 3229 3229 3229 3229 3230 3230 3230 3230
3230 3230 3231 3231 3232 3232 3232 3233 3233 3233 3233 3232 3232 3232 3232 3231 3231 3230 3230 3229 3229 3228 3227 3226 3226 3225 3224 3224 3223 3222 3222 3222 3222 3222 3223 3224 3224 3224 3224 3224 3224 3225 3225 3225 3225 3225 3225 3225 3225 3225 3226 3226 3226 3227 3227 3227 3227 3227 3227 3227 3227 3227 3227 3227 3228 3228 3228 3228 3228 3228 3227 3227 3227 3227 3227 3228 3229 3229 3229 3228 3228 3229 3229 3229 3229
3229 3230 3230 3231 3231 3231 3232 3232 3232 3232 3232 3232 3232 3232 3232 3231 3231 3230 3230 3229 3229 3228 3227 3226 3225 3224 3224 3223 3222 3221 3221 3221 3221 3222 3223 3224 3224 3224 3225 3224 3224 3224 3224 3224 3224 3224 3225 3225 3225 3225 3225 3225 3226 3226 3226 3226 3226 3226 3226 3226 3226 3227 3227 3227 3227 3227 3227 3227 3227 3227 3227 3227 3226 3226 3226 3226 3227 3227 3228 3228 3228 3228 3228 3228 3228
3229 3229 3230 3230 3231 3231 3231 3231 3232 3231 3231 3231 3231 3231 3231 3231 3231 3230 3229 3229 3228 3227 3226 3225 3224 3224 3223 3222 3221 3220 3220 3220 3221 3221 3222 3223 3224 3224 3224 3224 3224 3224 3224 3224 3224 3224 3225 3225 3225 3225 3225 3225 3225 3225 3225 3226 3226 3226 3226 3226 3226 3226 3226 3226 3227 3227 3227 3227 3227 3226 3226 3226 3226 3225 3225 3225 3225 3226 3226 3226 3226 3226 3226 3226 3226
3228 3229 3229 3230 3230 3230 3231 3231 3231 3231 3231 3230 3231 3231 3231 3231 3230 3229 3229 3228 3227 3227 3226 3225 3224 3223 3222 3222 3221 3220 3220 3220 3220 3221 3222 3223 3224 3224 3224 3224 3224 3224 3223 3224 3224 3224 3224 3224 3224 3224 3225 3225 3224 3224 3225 3225 3225 3225 3225 3225 3225 3225 3226 3226 3226 3226 3226 3226 3226 3225 3225 3225 3224 3224 3224 3224 3224 3225 3225 3225 3225 3225 3225 3225 3225
3227 3228 3229 3229 3229 3230 3230 3230 3230 3231 3230 3230 3230 3230 3230 3230 3230 3229 3229 3228 3227 3227 3226 3225 3224 3223 3222 3221 3221 3220 3220 3220 3220 3220 3221 3222 3223 3224 3224 3223 3223 3223 3222 3222 3223 3223 3223 3223 3223 3223 3223 3224 3224 3224 3224 3224 3224 3224 3224 3225 3225 3225 3225 3225 3225 3225 3225 3225 3225 3225 3224 3224 3224 3223 3223 3223 3223 3223 3223 3223 3223 3223 3223 3223 3223
3227 3227 3228 3228 3229 3229 3230 3230 3230 3230 3230 3230 3230 3230 3230 3230 3230 3229 3229 3228 3228 3227 3226 3225 3223 3223 3222 3221 3220 3220 3220 3220 3220 3221 3221 3222 3223 3224 3224 3223 3222 3222 3221 3221 3222 3222 3223 3222 3223 3223 3223 3223 3223 3223 3223 3224 3224 3223 3223 3224 3224 3224 3224 3224 3224 3224 3224 3224 3224 3224 3223 3223 3223 3223 3222 3222 3222 3222 3222 3221 3221 3221 3221 3221 3221
3226 3227 3227 3228 3228 3229 3229 3229 3229 3229 3230 3230 3230 3230 3230 3230 3230 3229 3229 3228 3228 3227 3226 3225 3224 3223 3222 3221 3221 3221 3221 3221 3220 3221 3222 3223 3223 3224 3224 3223 3222 3222 3221 3221 3221 3222 3222 3222 3222 3222 3223 3223 3223 3223 3222 3223 3223 3222 3222 3223 3223 3223 3223 3223 3222 3222 3222 3222 3222 3222 3222 3221 3222 3222 3222 3221 3221 3220 3220 3220 3220 3219 3219 3219 3219
3225 3226 3226 3227 3227 3228 3228 3229 3229 3229 3229 3230 3230 3230 3230 3230 3230 3229 3229 3228 3228 3227 3227 3225 3224 3223 3222 3222 3221 3221 3222 3221 3221 3222 3222 3223 3223 3223 3224 3223 3222 3221 3221 3221 3221 3221 3221 3221 3221 3221 3222 3222 3222 3222 3222 3221 3221 3221 3221 3221 3221 3221 3221 3221 3221 3221 3221 3221 3220 3220 3220 3220 3219 3220 3220 3220 3219 3219 3218 3218 3218 3218 3217 3217 3217
3225 3225 3226 3226 3227 3227 3227 3228 3228 3229 3229 3230 3230 3230 3230 3230 3230 3230 3229 3229 3229 3228 3227 3226 3224 3223 3223 3222 3222 3222 3222 3222 3222 3222 3222 3223 3223 3223 3223 3223 3222 3222 3221 3221 3221 3221 3221 3221 3221 3221 3221 3221 3221 3221 3221 3220 3220 3220 3220 3220 3220 3220 3220 3220 3219 3219 3219 3219 3219 3219 3218 3218 3218 3217 3217 3217 3217 3217 3216 3216 3216 3216 3216 3215 3215
3224 3224 3225 3226 3226 3226 3227 3227 3228 3229 3229 3229 3229 3229 3230 3230 3230 3230 3230 3229 3229 3228 3227 3226 3225 3224 3223 3222 3222 3222 3222 3222 3222 3223 3222 3223 3223 3223 3223 3223 3222 3222 3221 3221 3221 3221 3221 3221 3221 3221 3221 3221 3221 3220 3220 3220 3219 3219 3219 3219 3218 3218 3218 3218 3218 3217 3217 3217 3217 3217 3217 3217 3216 3216 3216 3216 3216 3215 3215 3214 3214 3214 3214 3214 3213
3223 3223 3224 3225 3225 3226 3226 3227 3227 3228 3228 3228 3229 3229 3229 3230 3230 3230 3230 3229 3229 3228 3227 3226 3225 3224 3224 3223 3222 3222 3222 3222 3222 3223 3223 3223 3223 3222 3222 3222 3222 3222 3221 3221 3221 3222 3221 3221 3221 3221 3221 3221 3221 3220 3220 3219 3219 3218 3218 3218 3217 3217 3217 3217 3216 3216 3216 3216 3216 3216 3216 3215 3215 3215 3215 3214 3214 3214 3214 3213 3213 3213 3212 3212 3211
3221 3222 3223 3224 3224 3225 3225 3226 3227 3227 3228 3228 3228 3229 3229 3229 3230 3229 3229 3229 3228 3228 3227 3226 3226 3225 3224 3224 3223 3222 3222 3222 3222 3222 3223 3223 3223 3222 3222 3222 3222 3221 3221 3221 3221 3221 3222 3221 3221 3221 3221 3221 3221 3220 3220 3219 3219 3218 3218 3217 3217 3217 3216 3216 3216 3215 3215 3215 3215 3215 3214 3214 3214 3214 3213 3213 3213 3213 3212 3212 3211 3211 3211 3210 3210
3220 3221 3222 3223 3223 3224 3225 3225 3226 3226 3227 3227 3228 3228 3229 3229 3229 3229 3229 3229 3228 3228 3227 3227 3226 3226 3225 3224 3224 3223 3222 3222 3222 3222 3222 3223 3223 3223 3223 3222 3222 3222 3221 3221 3221 3221 3221 3221 3221 3221 3221 3220 3220 3220 3220 3219 3219 3218 3217 3217 3216 3216 3216 3215 3215 3215 3215 3214 3214 3214 3214 3214 3213 3213 3212 3212 3212 3211 3211 3211 3210 3210 3209 3209 3208
3219 3220 3221 3221 3222 3223 3224 3224 3225 3225 3226 3226 3227 3227 3228 3229 3229 3229 3229 3228 3228 3228 3227 3227 3227 3226 3226 3225 3224 3223 3223 3222 3222 3222 3222 3222 3222 3222 3223 3222 3222 3222 3222 3221 3221 3221 3220 3220 3221 3221 3220 3220 3220 3219 3219 3219 3218 3218 3217 3216 3216 3215 3215 3215 3215 3215 3214 3214 3214 3214 3214 3213 3213 3213 3212 3212 3212 3211 3211 3210 3210 3209 3208 3208 3207
3217 3218 3219 3220 3221 3222 3222 3223 3224 3224 3225 3225 3226 3227 3227 3228 3228 3228 3228 3228 3228 3228 3227 3227 3227 3227 3226 3225 3225 3224 3223 3223 3222 3222 3222 3222 3222 3222 3223 3223 3222 3222 3222 3221 3221 3220 3220 3220 3220 3220 3219 3219 3219 3219 3218 3218 3218 3217 3217 3216 3215 3215 3215 3215 3215 3215 3214 3214 3214 3214 3214 3214 3213 3213 3212 3212 3211 3211 3210 3210 3209 3208 3207 3206 3206
3216 3217 3218 3219 3220 3221 3221 3222 3223 3223 3224 3225 3225 3225 3226 3227 3227 3228 3228 3228 3228 3227 3227 3227 3227 3227 3226 3226 3225 3225 3224 3223 3223 3222 3222 3222 3222 3222 3223 3223 3222 3222 3221 3221 3220 3220 3220 3219 3219 3219 3218 3218 3219 3218 3218 3218 3217 3217 3216 3216 3215 3215 3215 3215 3215 3215 3215 3214 3214 3214 3214 3213 3213 3212 3212 3211 3210 3210 3209 3208 3208 3207 3206 3205 3204
3215 3216 3217 3218 3219 3220 3220 3221 3221 3222 3223 3224 3224 3225 3225 3226 3226 3227 3227 3227 3227 3227 3227 3227 3227 3226 3226 3226 3225 3225 3224 3224 3223 3223 3222 3222 3222 3222 3222 3222 3221 3221 3221 3220 3220 3219 3219 3219 3218 3218 3218 3218 3218 3218 3217 3217 3216 3216 3215 3215 3215 3215 3215 3214 3214 3214 3214 3214 3213 3213 3212 3212 3211 3211 3210 3209 3209 3208 3207 3207 3206 3205 3204 3203 3202
3213 3214 3215 3216 3217 3218 3218 3219 3220 3221 3221 3222 3223 3224 3224 3225 3225 3226 3226 3226 3227 3227 3227 3227 3226 3226 3226 3226 3226 3225 3224 3224 3223 3223 3222 3222 3221 3221 3221 3221 3221 3220 3220 3219 3219 3219 3218 3218 3218 3217 3217 3217 3216 3216 3216 3215 3215 3214 3214 3214 3214 3213 3213 3213 3213 3213 3213 3212 3212 3211 3210 3210 3209 3209 3208 3208 3207 3206 3206 3205 3204 3203 3202 3201 3200
3212 3212 3213 3214 3215 3216 3216 3217 3218 3219 3220 3221 3222 3223 3224 3224 3224 3224 3225 3225 3226 3226 3226 3226 3226 3226 3226 3226 3226 3225 3224 3224 3223 3223 3222 3222 3221 3221 3221 3220 3220 3220 3219 3219 3218 3218 3217 3217 3216 3216 3216 3215 3215 3215 3214 3214 3213 3213 3213 3212 3212 3212 3212 3211 3211 3211 3211 3210 3210 3209 3209 3208 3208 3207 3207 3206 3205 3205 3204 3202 3201 3200 3199 3198 3197
3210 3211 3211 3212 3213 3214 3215 3215 3216 3217 3218 3219 3220 3221 3222 3223 3223 3223 3223 3224 3224 3225 3225 3226 3226 3226 3225 3225 3225 3225 3224 3224 3223 3223 3222 3222 3221 3221 3220 3220 3220 3219 3218 3218 3217 3217 3216 3216 3215 3215 3215 3214 3214 3213 3213 3212 3212 3212 3211 3211 3210 3210 3209 3209 3209 3209 3209 3208 3208 3208 3207 3207 3206 3206 3205 3204 3203 3202 3201 3200 3199 3198 3196 3195 3194
3208 3209 3209 3210 3211 3212 3213 3213 3214 3215 3216 3217 3218 3219 3221 3221 3222 3222 3222 3223 3223 3224 3224 3225 3225 3225 3224 3224 3224 3224 3224 3223 3223 3222 3222 3221 3221 3221 3220 3219 3219 3218 3218 3217 3216 3215 3215 3215 3215 3214 3213 3213 3213 3212 3211 3211 3211 3210 3210 3209 3209 3208 3207 3207 3207 3207 3207 3207 3206 3206 3205 3205 3204 3203 3202 3201 3200 3199 3198 3197 3196 3195 3193 3192 3191
3206 3206 3207 3208 3209 3209 3210 3211 3212 3213 3214 3215 3216 3217 3219 3220 3220 3221 3221 3221 3221 3222 3223 3223 3223 3223 3223 3223 3223 3223 3223 3222 3222 3221 3221 3221 3220 3220 3219 3218 3218 3217 3217 3216 3215 3214 3214 3214 3214 3213 3212 3212 3211 3211 3210 3210 3210 3209 3208 3208 3207 3206 3206 3206 3206 3206 3206 3205 3204 3204 3203 3202 3202 3201 3200 3198 3197 3196 3195 3193 3192 3191 3190 3189 3187
3203 3204 3205 3206 3207 3207 3208 3209 3210 3211 3211 3212 3214 3215 3216 3217 3218 3219 3219 3220 3220 3221 3221 3222 3222 3222 3222 3222 3222 3222 3221 3221 3221 3220 3220 3219 3219 3219 3218 3217 3217 3216 3216 3215 3214 3213 3213 3212 3212 3212 3211 3211 3210 3210 3209 3209 3208 3208 3207 3206 3205 3205 3204 3204 3204 3204 3204 3203 3203 3202 3201 3200 3199 3198 3197 3195 3194 3193 3192 3190 3189 3187 3186 3185 3184
3201 3202 3203 3203 3204 3205 3206 3206 3207 3208 3209 3210 3211 3212 3214 3215 3216 3217 3218 3218 3219 3219 3220 3220 3220 3221 3221 3221 3221 3220 3220 3220 3219 3219 3219 3218 3218 3217 3217 3216 3215 3215 3214 3214 3213 3212 3211 3211 3210 3210 3210 3209 3209 3208 3208 3207 3206 3206 3205 3204 3204 3204 3203 3203 3203 3202 3202 3201 3200 3199 3198 3197 3196 3194 3193 3192 3191 3190 3189 3187 3186 3184 3183 3182 3180
3198 3199 3200 3201 3201 3202 3203 3204 3204 3205 3207 3208 3209 3210 3211 3213 3214 3215 3216 3216 3217 3218 3218 3218 3219 3219 3219 3219 3219 3219 3219 3218 3218 3218 3217 3217 3216 3216 3215 3215 3214 3213 3213 3212 3212 3211 3210 3209 3208 3208 3208 3207 3207 3206 3206 3205 3204 3203 3203 3202 3202 3202 3202 3201 3200 3200 3199 3198 3197 3196 3195 3194 3193 3192 3190 3189 3188 3186 3185 3183 3182 3181 3179 3178 3176
3196 3197 3197 3198 3199 3199 3200 3200 3201 3202 3203 3205 3206 3207 3209 3210 3211 3213 3213 3214 3216 3216 3216 3216 3217 3217 3217 3217 3217 3217 3217 3217 3217 3216 3216 3216 3215 3214 3214 3213 3213 3212 3212 3211 3210 3209 3209 3208 3207 3206 3206 3205 3204 3204 3203 3203 3202 3201 3201 3200 3200 3200 3200 3200 3198 3197 3196 3195 3194 3193 3192 3191 3190 3188 3187 3185 3184 3183 3181 3179 3178 3176 3175 3173 3172
3193 3193 3194 3195 3196 3196 3197 3197 3198 3199 3200 3202 3203 3204 3206 3207 3209 3210 3211 3212 3213 3214 3215 3215 3215 3215 3215 3215 3215 3215 3215 3215 3215 3215 3214 3214 3214 3213 3213 3212 3212 3211 3210 3210 3209 3208 3207 3207 3206 3204 3204 3203 3202 3202 3201 3201 3200 3199 3199 3198 3198 3198 3197 3197 3196 3194 3193 3192 3191 3190 3189 3188 3187 3186 3184 3182 3181 3179 3177 3175 3173 3172 3170 3169 3167
3189 3190 3191 3192 3192 3193 3194 3194 3195 3196 3197 3198 3200 3201 3203 3205 3206 3207 3208 3209 3211 3212 3212 3213 3213 3212 3213 3213 3213 3213 3213 3213 3213 3213 3212 3212 3212 3212 3211 3211 3210 3209 3209 3208 3208 3207 3206 3206 3205 3203 3202 3201 3200 3200 3199 3199 3198 3198 3197 3197 3196 3195 3195 3194 3193 3192 3190 3189 3188 3187 3186 3185 3184 3183 3181 3180 3178 3176 3174 3172 3170 3168 3166 3164 3163
3185 3186 3187 3188 3189 3190 3191 3191 3192 3193 3194 3195 3196 3198 3200 3202 3203 3204 3205 3206 3208 3209 3210 3210 3211 3210 3210 3211 3211 3210 3210 3211 3211 3211 3211 3210 3210 3210 3209 3209 3208 3208 3207 3207 3206 3206 3205 3204 3203 3202 3201 3199 3198 3198 3197 3197 3196 3196 3195 3194 3194 3193 3192 3191 3191 3190 3188 3187 3186 3185 3184 3183 3182 3180 3179 3177 3175 3173 3171 3169 3166 3164 3162 3160 3158
3182 3182 3184 3185 3186 3187 3188 3189 3189 3191 3191 3192 3193 3195 3197 3198 3200 3201 3202 3203 3204 3206 3207 3208 3208 3208 3208 3208 3208 3208 3208 3208 3208 3208 3208 3208 3208 3207 3207 3207 3206 3206 3205 3205 3204 3204 3203 3202 3201 3200 3199 3198 3197 3196 3195 3195 3195 3194 3194 3192 3192 3191 3190 3189 3188 3187 3186 3185 3183 3182 3181 3180 3179 3177 3175 3173 3171 3169 3167 3165 3163 3160 3158 3156 3154
3178 3178 3180 3182 3183 3184 3185 3186 3187 3188 3188 3189 3190 3192 3193 3195 3196 3197 3198 3200 3201 3202 3204 3205 3206 3206 3206 3206 3205 3205 3205 3206 3206 3206 3206 3206 3205 3205 3205 3204 3204 3203 3203 3202 3202 3202 3201 3200 3199 3198 3197 3196 3195 3194 3193 3192 3192 3192 3192 3191 3190 3188 3187 3187 3186 3185 3184 3182 3181 3179 3178 3178 3176 3173 3171 3169 3167 3165 3163 3161 3158 3156 3153 3152 3150
3175 3175 3176 3178 3180 3181 3181 3182 3183 3184 3185 3185 3186 3188 3190 3191 3193 3194 3195 3196 3198 3199 3200 3202 3203 3203 3203 3203 3203 3202 3203 3203 3204 3203 3203 3203 3203 3202 3202 3201 3201 3201 3200 3200 3199 3199 3198 3197 3197 3196 3195 3194 3193 3192 3191 3190 3190 3189 3189 3189 3188 3186 3184 3183 3182 3182 3182 3180 3178 3177 3176 3175 3173 3170 3168 3166 3163 3161 3159 3158 3155 3152 3150 3149 3147
3172 3172 3173 3175 3176 3177 3178 3179 3180 3180 3181 3182 3183 3184 3186 3188 3189 3190 3192 3193 3194 3195 3197 3198 3200 3200 3200 3200 3200 3199 3200 3201 3201 3200 3200 3200 3200 3199 3199 3199 3198 3198 3197 3197 3196 3196 3195 3195 3194 3194 3193 3192 3191 3190 3189 3188 3187 3187 3186 3185 3185 3184 3182 3181 3179 3179 3179 3178 3176 3175 3174 3172 3170 3167 3165 3163 3160 3157 3155 3153 3151 3148 3146 3145 3143
3168 3169 3170 3171 3172 3173 3174 3175 3176 3176 3177 3178 3179 3181 3183 3185 3186 3187 3188 3190 3191 3192 3193 3195 3196 3197 3197 3197 3197 3197 3197 3197 3198 3197 3196 3197 3197 3196 3196 3196 3195 3195 3194 3194 3194 3193 3193 3192 3192 3191 3191 3190 3189 3188 3187 3186 3185 3184 3183 3182 3182 3181 3180 3179 3177 3175 3175 3175 3172 3171 3170 3169 3166 3164 3162 3160 3157 3154 3152 3150 3148 3145 3143 3141 3140
3165 3166 3167 3168 3168 3169 3170 3171 3171 3172 3173 3174 3176 3178 3180 3181 3183 3184 3185 3186 3187 3188 3189 3191 3192 3193 3194 3194 3194 3194 3194 3194 3194 3194 3193 3193 3194 3193 3193 3192 3192 3192 3191 3191 3191 3190 3190 3189 3189 3188 3188 3188 3187 3186 3185 3184 3182 3181 3181 3180 3179 3179 3177 3176 3175 3172 3171 3170 3169 3167 3166 3164 3162 3160 3158 3156 3154 3151 3149 3146 3145 3142 3140 3138 3137
3162 3163 3164 3164 3165 3166 3166 3167 3167 3168 3169 3171 3172 3174 3176 3178 3179 3180 3181 3182 3183 3184 3185 3186 3188 3189 3190 3190 3190 3190 3190 3191 3191 3191 3190 3190 3190 3190 3189 3189 3189 3188 3188 3188 3188 3187 3187 3186 3186 3185 3185 3185 3185 3184 3183 3182 3180 3179 3178 3177 3176 3176 3175 3173 3172 3170 3168 3166 3164 3163 3162 3160 3158 3156 3154 3152 3151 3149 3146 3144 3142 3140 3138 3136 3134
3159 3160 3160 3161 3162 3162 3162 3163 3163 3164 3165 3167 3169 3170 3172 3174 3176 3177 3177 3178 3178 3179 3181 3182 3184 3185 3186 3186 3186 3186 3186 3188 3188 3188 3187 3187 3187 3187 3186 3185 3185 3185 3185 3185 3184 3184 3183 3183 3182 3182 3182 3182 3182 3181 3180 3179 3178 3176 3175 3174 3173 3173 3172 3170 3169 3167 3165 3163 3161 3160 3158 3156 3155 3153 3151 3149 3147 3146 3143 3141 3139 3137 3135 3133 3131
3155 3156 3157 3157 3158 3158 3159 3159 3160 3161 3161 3163 3164 3166 3168 3170 3172 3173 3173 3173 3174 3175 3176 3178 3179 3181 3182 3182 3182 3182 3183 3184 3185 3184 3184 3184 3184 3183 3182 3182 3182 3182 3182 3182 3181 3180 3180 3179 3179 3179 3179 3179 3178 3178 3177 3176 3175 3173 3172 3171 3170 3170 3169 3167 3166 3164 3162 3160 3158 3157 3155 3153 3152 3151 3149 3146 3144 3143 3140 3138 3136 3134 3131 3130 3128
3150 3152 3153 3153 3154 3154 3155 3155 3156 3156 3157 3159 3160 3162 3164 3166 3168 3169 3168 3168 3169 3170 3172 3173 3175 3176 3177 3177 3177 3178 3178 3179 3180 3181 3181 3181 3181 3180 3179 3179 3179 3178 3179 3178 3178 3177 3176 3176 3175 3175 3175 3175 3175 3174 3174 3173 3172 3171 3170 3169 3168 3167 3166 3164 3163 3161 3158 3156 3154 3154 3152 3150 3149 3148 3147 3144 3141 3139 3137 3134 3133 3131 3129 3126 3124
3146 3147 3148 3149 3149 3150 3151 3151 3152 3152 3153 3155 3156 3158 3160 3163 3164 3164 3164 3164 3164 3165 3166 3168 3170 3171 3172 3172 3172 3173 3174 3175 3176 3178 3178 3177 3177 3176 3176 3176 3175 3175 3175 3175 3174 3174 3173 3172 3171 3171 3171 3171 3171 3171 3170 3170 3168 3167 3167 3166 3165 3164 3163 3162 3160 3158 3155 3152 3149 3149 3149 3148 3147 3146 3145 3142 3139 3136 3134 3131 3129 3127 3126 3124 3122
3143 3143 3144 3144 3145 3146 3147 3147 3148 3148 3149 3150 3152 3153 3156 3158 3159 3159 3159 3159 3159 3160 3161 3163 3165 3166 3167 3167 3168 3168 3169 3170 3171 3174 3174 3173 3172 3172 3172 3172 3172 3172 3171 3171 3171 3170 3169 3168 3168 3168 3168 3168 3168 3167 3167 3166 3165 3164 3164 3163 3162 3161 3160 3159 3157 3155 3153 3149 3147 3146 3145 3144 3144 3143 3142 3141 3137 3133 3131 3128 3126 3123 3122 3121 3119
3139 3139 3139 3139 3140 3141 3142 3143 3143 3144 3145 3146 3147 3149 3151 3153 3154 3155 3155 3155 3155 3155 3156 3158 3159 3160 3161 3162 3163 3164 3164 3164 3167 3169 3170 3169 3168 3168 3168 3168 3168 3168 3168 3167 3167 3167 3166 3165 3164 3164 3164 3164 3164 3164 3163 3163 3162 3161 3161 3160 3159 3158 3157 3155 3153 3152 3150 3146 3145 3145 3144 3142 3141 3140 3138 3137 3135 3132 3128 3125 3123 3121 3119 3117 3116
3134 3134 3134 3134 3135 3135 3136 3137 3138 3139 3140 3141 3142 3144 3146 3147 3149 3150 3151 3150 3150 3150 3151 3152 3153 3155 3155 3156 3158 3159 3159 3159 3162 3164 3165 3165 3164 3163 3164 3164 3164 3164 3164 3163 3163 3163 3162 3161 3160 3160 3160 3160 3160 3160 3160 3159 3158 3158 3157 3157 3156 3155 3154 3152 3150 3148 3146 3143 3141 3142 3142 3140 3139 3137 3135 3133 3131 3129 3126 3122 3120 3118 3116 3115 3113